星链-30072 (STARLINK-30072 )

导读 | 星芒AI

STARLINK-30072 是 SpaceX Starlink 项目中的一颗低轨通信卫星,属于第三代星链卫星(v1.5 或 v2 构型)。它于 2023 年发射,部署在约 550 公里的近地轨道上,旨在为全球用户提供高速互联网服务。该卫星采用先进的星间激光链路技术,提升数据传输效率,并支持更广泛的覆盖范围。作为 Starlink 卫星群的一部分,STARLINK-30072 有助于增强 SpaceX 在全球卫星互联网市场的竞争力。

基本信息
目录编号:
57501
目录名称:
STARLINK-30072
国际标识:
2023-113G
轨道中心:
EARTH
卫星名称:
星链-30072
卫星全名:
星链-30072 (STARLINK-30072 )
卫星状态:
在轨 (已飞行864 天)
发射日期:
2023-08-07 UTC
国别 :
美国 (US)
星等 :
--
轨道信息
数据来源 国际轨道数据
星历时间: 2025-12-18T07:49:53+0800
17小时前
查看轨道信息
半长轴: 6937.184km
偏心率: 0.0001173
轨道倾角: 43.003°
近地点辐角 275.329°
升交点赤经 101.008°
平近点角 84.742°
近地点: 558.235km
远地点: 559.863km
周期: 95.837分钟
每日圈数: 15.025466
详细信息
固有亮度:
5
最大亮度:
0.3
卫星平台:
Starlink v2.0 mini
覆盖范围:
全球
运营商:
太空探索技术公司
运营商所在国:
美国
制造商(研发单位):
太空探索技术公司
制造商所在国:
美国
使用方式:
暂无
卫星简介
星链(Starlink)计划是由太空探索技术公司(SpaceX)提出的一个巨型低轨卫星互联网星座项目,计划在2019年至2024年间在太空搭建由约1.2万颗卫星组成的“星链”网络,其中1584颗将部署在地球上空550千米处的近地轨道,并从2020年开始工作。该卫星仍在工作。
2D轨道图
3D轨道图
轨道高度分析图
轨道倾角分析图
轨道综合分析图
查看轨道综合分析图